W4CAT-13 Weather Reports


Display with metric or nautical units.
time (UTC)temp
F
wind
direction
speed
MPH
gust
MPH
rain 1hr
in
rain 24hr
in
rain mn
in
humidity
%
barometer
mb
20260906021443 79 195 1.0 2.0 0.00 0.56 0.56 74 974.9
20260906015943 81 198 1.0 1.0 0.00 0.56 0.56 72 974.9
20260906014413 69 104 3.0 5.0 0.00 0.56 0.56 91 976.0
20260906012913 69 104 3.0 5.0 0.00 0.56 0.56 91 976.0
20260906011343 69 104 3.0 5.0 0.00 0.56 0.56 91 976.0
20260906005813 69 104 3.0 5.0 0.13 0.56 0.56 91 976.0
20260906004313 69 104 3.0 5.0 0.48 0.56 0.56 91 976.0
20260906002743 69 104 3.0 5.0 0.55 0.56 0.56 91 976.0
20260906001243 69 104 3.0 5.0 0.56 0.56 0.56 91 976.0
20260905235743 72 31 3.0 29.0 0.24 0.24 0.24 80 975.6
20260905234213 78 16 1.0 10.0 0.08 0.08 0.08 80 974.6
20260905232713 86 77 3.0 6.0 0.01 0.01 0.01 59 975.1
20260905231143 92 89 1.0 2.0 0.00 0.00 0.00 58 974.6
20260905225613 92 214 0.0 2.0 0.00 0.00 0.00 55 974.3
20260905224043 91 212 2.0 2.0 0.00 0.00 0.00 58 974.6
20260905222543 91 278 0.0 1.0 0.00 0.00 0.00 59 974.3
20260905221301 91 139 1.0 1.0 0.00 0.00 0.00 59 974.4
20260905221013 91 139 1.0 1.0 0.00 0.00 0.00 59 974.4
20260905215443 92 217 0.0 0.0 0.00 0.00 0.00 57 974.6
20260905213913 94 121 0.0 2.0 0.00 0.00 0.00 54 974.4
20260905212343 95 172 1.0 2.0 0.00 0.00 0.00 50 974.6
20260905210843 95 113 0.0 1.0 0.00 0.00 0.00 50 974.7
20260905205343 96 56 1.0 3.0 0.00 0.00 0.00 51 974.9
20260905203813 93 72 0.0 2.0 0.00 0.00 0.00 52 975.0
20260905202313 94 64 1.0 1.0 0.00 0.00 0.00 53 974.9
20260905200743 95 225 0.0 3.0 0.00 0.00 0.00 48 975.0
20260905195243 94 359 0.0 2.0 0.00 0.00 0.00 53 975.6
20260905193713 94 57 0.0 2.0 0.00 0.00 0.00 49 976.0
20260905192143 93 120 1.0 2.0 0.00 0.04 0.00 52 976.0
20260905190613 97 38 0.0 2.0 0.00 0.12 0.00 49 976.0
20260905185043 96 307 0.0 3.0 0.00 0.12 0.00 47 976.3
20260905183513 94 146 1.0 2.0 0.00 0.12 0.00 51 976.3
20260905181943 93 58 1.0 2.0 0.00 0.12 0.00 53 976.9
20260905180443 93 68 1.0 2.0 0.00 0.12 0.00 52 977.0
20260905174913 94 147 0.0 6.0 0.00 0.12 0.00 50 977.0
20260905173413 94 297 2.0 2.0 0.00 0.12 0.00 50 977.3
20260905171843 94 326 1.0 1.0 0.00 0.12 0.00 55 977.3
20260905170313 94 82 3.0 3.0 0.00 0.12 0.00 56 977.6
20260905164743 93 20 0.0 2.0 0.00 0.12 0.00 57 977.3
20260905163213 91 72 1.0 2.0 0.00 0.12 0.00 62 977.6
20260905161643 90 102 3.0 3.0 0.00 0.12 0.00 62 977.6
20260905160113 90 46 2.0 3.0 0.00 0.12 0.00 63 977.6
20260905154637 88 77 2.0 2.0 0.00 0.12 0.00 67 978.0
20260905154543 88 77 2.0 2.0 0.00 0.12 0.00 67 978.0
20260905153043 88 59 2.0 2.0 0.00 0.12 0.00 67 978.3
20260905151512 88 122 0.0 1.0 0.00 0.12 0.00 66 978.3
20260905145943 86 85 1.0 2.0 0.00 0.12 0.00 71 978.3
20260905144412 84 9 0.0 1.0 0.00 0.12 0.00 74 978.3
20260905142912 82 19 1.0 2.0 0.00 0.12 0.00 83 978.3
20260905141412 80 238 1.0 2.0 0.00 0.12 0.00 84 978.7
20260905135912 79 257 1.0 2.0 0.00 0.12 0.00 85 978.7
20260905134420 79 139 0.0 1.0 0.00 0.12 0.00 85 978.3
20260905134342 79 139 0.0 1.0 0.00 0.12 0.00 85 978.3
20260905132915 79 269 0.0 1.0 0.00 0.12 0.00 84 978.3
20260905132842 79 269 0.0 1.0 0.00 0.12 0.00 84 978.3
20260905131312 79 225 0.0 2.0 0.00 0.12 0.00 82 978.3
20260905125742 78 322 0.0 1.0 0.00 0.12 0.00 82 978.3
20260905124242 78 238 0.0 1.0 0.00 0.12 0.00 82 978.7
20260905122712 78 216 0.0 1.0 0.00 0.12 0.00 83 978.3
20260905121207 78 216 0.0 0.0 0.00 0.12 0.00 81 978.0
20260905121142 78 216 0.0 0.0 0.00 0.12 0.00 81 978.0
20260905115612 79 180 0.0 1.0 0.00 0.12 0.00 77 978.0
20260905114042 78 45 2.0 2.0 0.00 0.12 0.00 80 977.6
20260905112512 77 81 1.0 2.0 0.00 0.12 0.00 82 977.6
20260905111012 78 57 1.0 2.0 0.00 0.12 0.00 82 977.3
20260905105512 78 48 2.0 2.0 0.00 0.12 0.00 80 977.3
20260905103942 78 55 0.0 1.0 0.00 0.12 0.00 80 977.0
20260905102412 78 36 1.0 2.0 0.00 0.12 0.00 81 977.0
20260905100842 78 34 1.0 2.0 0.00 0.12 0.00 84 977.0
20260905095312 78 30 0.0 0.0 0.00 0.12 0.00 83 977.0
20260905093812 78 136 0.0 1.0 0.00 0.12 0.00 81 977.0
20260905092346 79 183 0.0 1.0 0.00 0.12 0.00 79 977.0
20260905092312 79 183 0.0 1.0 0.00 0.12 0.00 79 977.0
20260905090742 79 93 1.0 1.0 0.00 0.12 0.00 78 977.0
20260905085252 80 211 1.0 2.0 0.00 0.12 0.00 76 977.0
20260905085212 80 211 1.0 2.0 0.00 0.12 0.00 76 977.0
20260905083642 80 49 0.0 1.0 0.00 0.12 0.00 72 977.0
20260905082142 81 216 0.0 1.0 0.00 0.12 0.00 70 977.0
20260905080612 81 3 0.0 2.0 0.00 0.12 0.00 69 977.0
20260905075042 81 37 1.0 2.0 0.00 0.12 0.00 70 977.0
20260905073512 81 250 0.0 0.0 0.00 0.12 0.00 70 977.0
20260905072012 81 96 0.0 1.0 0.00 0.12 0.00 71 977.0
20260905070512 81 77 0.0 1.0 0.00 0.12 0.00 73 977.3
20260905064942 81 50 0.0 1.0 0.00 0.12 0.00 73 977.3
20260905063412 81 145 0.0 0.0 0.00 0.12 0.00 73 977.6
20260905061944 82 95 0.0 1.0 0.00 0.12 0.00 72 977.6
20260905061912 82 95 0.0 1.0 0.00 0.12 0.00 72 977.6
20260905060342 82 53 1.0 2.0 0.00 0.12 0.00 73 977.6
20260905054848 81 74 1.0 2.0 0.00 0.12 0.00 74 977.6
20260905054812 81 74 1.0 2.0 0.00 0.12 0.00 74 977.6
20260905053312 82 44 0.0 2.0 0.00 0.12 0.00 73 977.3
20260905051742 82 56 1.0 1.0 0.00 0.12 0.00 73 977.6
20260905050242 82 154 0.0 0.0 0.00 0.12 0.00 72 977.3
20260905044712 83 262 0.0 0.0 0.00 0.12 0.12 71 977.3
20260905043212 82 132 0.0 0.0 0.00 0.12 0.12 71 977.6
20260905041801 83 188 1.0 2.0 0.00 0.12 0.12 70 977.6
20260905041715 83 188 1.0 2.0 0.00 0.12 0.12 70 977.6
20260905041642 83 188 1.0 2.0 0.00 0.12 0.12 70 977.6
20260905040112 83 212 0.0 1.0 0.00 0.12 0.12 69 977.6
20260905034542 84 225 0.0 2.0 0.00 0.12 0.12 69 978.0
20260905033012 84 315 0.0 1.0 0.00 0.12 0.12 69 978.0
20260905031442 84 252 1.0 2.0 0.00 0.12 0.12 69 978.0
20260905025942 83 216 2.0 2.0 0.00 0.12 0.12 70 978.3
20260905024412 83 166 0.0 1.0 0.00 0.12 0.12 70 978.0
20260905022912 83 129 1.0 1.0 0.00 0.12 0.12 71 978.0